Date String (YYYY-MM-DD hh:mm:ss) UTC,Instrument flags,Ambient pressure (hPa),Sample flow (lpm),Bypass flow (lpm),Sample temperature (°C),Ambient temperature (°C),ASC tube jacket temperature (°C),LED temperature (°C),Box temperature (°C),Sample RH (%),Span deviation,Mass concentration (μg/m³),Mass concentration (μg/m³),Mass concentration (μg/m³)
DateTimeUTC,F1_M11,P_M11,Q1_M11,Q2_M11,T1_M11,T2_M11,T3_M11,T4_M11,T5_M11,U1_M11,ZSPAN_M11,X0_M11,X2_M11,X1_M11
2022-10-06 08:00:00,,0834.7,4.99,0.00,29.1,27.4,00.0,37.9,30.8,18.3,0000.0,0009.64,0005.78,0005.38
2022-10-06 08:01:00,,0834.7,5.01,0.00,29.1,27.4,00.0,37.9,30.8,18.3,0000.0,0009.26,0005.77,0005.37
2022-10-06 08:02:00,,0834.7,5.01,0.00,29.1,27.4,00.0,37.9,30.9,18.3,0000.0,0009.29,0005.80,0005.37
2022-10-06 08:03:00,,0834.7,4.99,0.00,29.1,27.4,00.0,37.9,30.8,18.3,0000.0,0009.09,0005.77,0005.37
2022-10-06 08:04:00,,0834.7,5.00,0.00,29.1,27.4,00.0,37.9,30.8,18.3,0000.0,0008.74,0005.76,0005.38
2022-10-06 08:05:00,,0834.7,5.01,0.00,29.1,27.4,00.0,37.9,30.8,18.3,0000.0,0008.71,0005.75,0005.39
2022-10-06 08:06:00,,0834.7,4.99,0.00,29.1,27.4,00.0,37.9,30.8,18.3,0000.0,0008.79,0005.72,0005.39
2022-10-06 08:07:00,,0834.7,5.00,0.00,29.1,27.4,00.0,37.9,30.8,18.3,0000.0,0008.73,0005.72,0005.40
2022-10-06 08:08:00,,0834.7,5.00,0.00,29.1,27.4,00.0,37.9,30.8,18.3,0000.0,0008.61,0005.70,0005.38
2022-10-06 08:09:00,,0834.7,4.98,0.00,29.0,27.3,00.0,37.9,30.8,18.3,0000.0,0008.58,0005.68,0005.37
2022-10-06 08:10:00,,0834.7,5.00,0.00,29.0,27.3,00.0,37.8,30.8,18.3,0000.0,0008.57,0005.66,0005.35
2022-10-06 08:11:00,,0834.7,5.00,0.00,29.0,27.3,00.0,37.8,30.8,18.3,0000.0,0008.56,0005.65,0005.33
2022-10-06 08:12:00,,0834.7,5.00,0.00,29.0,27.3,00.0,37.8,30.8,18.3,0000.0,0008.52,0005.62,0005.31
2022-10-06 08:13:00,,0834.7,4.99,0.00,29.0,27.3,00.0,37.8,30.8,18.3,0000.0,0008.48,0005.57,0005.28
2022-10-06 08:14:00,,0834.7,5.00,0.00,29.0,27.3,00.0,37.8,30.8,18.3,0000.0,0008.95,0005.55,0005.25
2022-10-06 08:15:00,,0834.7,5.01,0.00,29.0,27.3,00.0,37.8,30.8,18.3,0000.0,0009.07,0005.52,0005.23
2022-10-06 08:16:00,,0834.7,5.00,0.00,29.0,27.3,00.0,37.8,30.7,18.3,0000.0,0009.14,0005.52,0005.21
2022-10-06 08:17:00,,0834.6,5.00,0.00,29.0,27.3,00.0,37.8,30.8,18.3,0000.0,0008.99,0005.51,0005.18
2022-10-06 08:18:00,,0834.7,5.01,0.00,29.0,27.3,00.0,37.8,30.8,18.3,0000.0,0008.86,0005.45,0005.16
2022-10-06 08:19:00,,0834.7,5.01,0.00,29.0,27.3,00.0,37.8,30.7,18.4,0000.0,0008.85,0005.44,0005.16
2022-10-06 08:20:00,,0834.7,4.99,0.00,29.0,27.2,00.0,37.8,30.7,18.4,0000.0,0008.79,0005.41,0005.14
2022-10-06 08:21:00,,0834.7,5.00,0.00,29.0,27.2,00.0,37.8,30.7,18.3,0000.0,0008.82,0005.42,0005.14
2022-10-06 08:22:00,,0834.7,5.00,0.00,28.9,27.2,00.0,37.8,30.7,18.3,0000.0,0008.85,0005.43,0005.14
2022-10-06 08:23:00,,0834.7,5.01,0.00,28.9,27.2,00.0,37.8,30.7,18.3,0000.0,0008.90,0005.46,0005.15
2022-10-06 08:24:00,,0834.7,4.98,0.00,28.9,27.2,00.0,37.8,30.7,18.3,0000.0,0009.19,0005.47,0005.16
2022-10-06 08:25:00,,0834.7,5.01,0.00,28.9,27.2,00.0,37.8,30.7,18.3,0000.0,0008.74,0005.46,0005.16
2022-10-06 08:26:00,,0834.7,5.00,0.00,28.9,27.2,00.0,37.7,30.7,18.3,0000.0,0008.71,0005.46,0005.16
2022-10-06 08:27:00,,0834.7,4.99,0.00,28.9,27.2,00.0,37.8,30.7,18.3,0000.0,0008.92,0005.43,0005.15
2022-10-06 08:28:00,,0834.6,5.01,0.00,28.9,27.2,00.0,37.7,30.6,18.3,0000.0,0008.87,0005.42,0005.14
2022-10-06 08:29:00,,0834.7,5.00,0.00,28.9,27.2,00.0,37.7,30.6,18.3,0000.0,0008.96,0005.45,0005.15
2022-10-06 08:30:00,,0834.7,4.99,0.00,28.9,27.2,00.0,37.7,30.6,18.3,0000.0,0009.07,0005.47,0005.14
2022-10-06 08:31:00,,0834.7,5.00,0.00,28.9,27.2,00.0,37.7,30.6,18.3,0000.0,0009.17,0005.49,0005.14
2022-10-06 08:32:00,,0834.6,5.01,0.00,28.9,27.1,00.0,37.7,30.6,18.3,0000.0,0009.52,0005.47,0005.14
2022-10-06 08:33:00,,0834.7,4.98,0.00,28.9,27.1,00.0,37.7,30.6,18.4,0000.0,0010.14,0005.45,0005.13
2022-10-06 08:34:00,,0834.6,5.00,0.00,28.9,27.1,00.0,37.7,30.7,18.4,0000.0,0010.28,0005.46,0005.13
2022-10-06 08:35:00,,0834.7,5.00,0.00,28.9,27.1,00.0,37.7,30.6,18.4,0000.0,0010.13,0005.47,0005.12
2022-10-06 08:36:00,,0834.7,5.00,0.00,28.8,27.1,00.0,37.7,30.6,18.4,0000.0,0009.96,0005.48,0005.12
2022-10-06 08:37:00,,0834.7,4.99,0.00,28.8,27.1,00.0,37.7,30.6,18.4,0000.0,0009.86,0005.47,0005.12
2022-10-06 08:38:00,,0834.6,5.01,0.00,28.8,27.1,00.0,37.7,30.6,18.4,0000.0,0009.51,0005.48,0005.12
2022-10-06 08:39:00,,0834.7,4.99,0.00,28.8,27.1,00.0,37.7,30.6,18.4,0000.0,0009.53,0005.48,0005.12
2022-10-06 08:40:00,,0834.6,5.01,0.00,28.8,27.1,00.0,37.6,30.5,18.4,0000.0,0009.50,0005.46,0005.11
2022-10-06 08:41:00,,0834.6,5.00,0.00,28.8,27.1,00.0,37.6,30.6,18.4,0000.0,0009.44,0005.44,0005.11
2022-10-06 08:42:00,,0834.6,4.99,0.00,28.8,27.1,00.0,37.6,30.5,18.4,0000.0,0009.40,0005.44,0005.10
2022-10-06 08:43:00,,0834.6,5.01,0.00,28.8,27.1,00.0,37.6,30.6,18.4,0000.0,0009.10,0005.44,0005.09
2022-10-06 08:44:00,,0834.6,5.00,0.00,28.8,27.0,00.0,37.6,30.5,18.4,0000.0,0008.38,0005.44,0005.09
2022-10-06 08:45:00,,0834.6,4.99,0.00,28.8,27.0,00.0,37.6,30.5,18.4,0000.0,0008.25,0005.42,0005.10
2022-10-06 08:46:00,,0834.6,5.02,0.00,28.8,27.0,00.0,37.6,30.5,18.4,0000.0,0008.31,0005.40,0005.10
2022-10-06 08:47:00,,0834.6,5.00,0.00,28.8,27.0,00.0,37.6,30.5,18.4,0000.0,0008.31,0005.39,0005.10
2022-10-06 08:48:00,,0834.6,5.00,0.00,28.8,27.0,00.0,37.6,30.5,18.4,0000.0,0008.32,0005.39,0005.10
2022-10-06 08:49:00,,0834.6,4.98,0.00,28.7,27.0,00.0,37.6,30.5,18.4,0000.0,0008.34,0005.40,0005.10
2022-10-06 08:50:00,,0834.6,5.00,0.00,28.7,27.0,00.0,37.6,30.5,18.4,0000.0,0008.42,0005.41,0005.10
2022-10-06 08:51:00,,0834.6,5.02,0.00,28.7,27.0,00.0,37.6,30.4,18.4,0000.0,0008.38,0005.40,0005.11
2022-10-06 08:52:00,,0834.6,4.99,0.00,28.7,27.0,00.0,37.6,30.5,18.4,0000.0,0008.43,0005.41,0005.11
2022-10-06 08:53:00,,0834.6,5.00,0.00,28.7,27.0,00.0,37.6,30.5,18.4,0000.0,0008.35,0005.39,0005.12
2022-10-06 08:54:00,,0834.6,5.01,0.00,28.7,27.0,00.0,37.5,30.4,18.5,0000.0,0008.35,0005.38,0005.12
2022-10-06 08:55:00,,0834.6,4.99,0.00,28.7,26.9,00.0,37.5,30.4,18.4,0000.0,0008.36,0005.38,0005.12
2022-10-06 08:56:00,,0834.6,5.00,0.00,28.7,26.9,00.0,37.5,30.4,18.4,0000.0,0008.31,0005.39,0005.11
2022-10-06 08:57:00,,0834.6,5.01,0.00,28.7,27.0,00.0,37.5,30.5,18.4,0000.0,0008.20,0005.38,0005.11
2022-10-06 08:58:00,,0834.6,5.00,0.00,28.7,26.9,00.0,37.5,30.4,18.4,0000.0,0008.19,0005.38,0005.10
2022-10-06 08:59:00,,0834.6,5.00,0.00,28.7,26.9,00.0,37.5,30.4,18.4,0000.0,0008.25,0005.39,0005.09
